Location: Lablach�re
(44.4660°N, 4.2165°E)
Time: 03:39:52
(UTC+00:00)

Daily predictions for brighter satellites

Satellite Brightness Start Highest point End
(mag) Time Altitude Azimuth Time Altitude Azimuth Time Altitude Azimuth
ISS -1.4 00:05:02 24° N 00:05:02 24° N 00:07:29 10° NE
Cosmos 1805 4.4 00:01:24 10° N 00:04:02 41° N 00:04:02 41° N
SeaSat 1 2.4 00:00:27 10° NNE 00:05:08 77° ENE 00:05:08 77° ENE
Helios 1A 4.2 00:07:34 35° ENE 00:07:34 35° ENE 00:11:19 10° N
CZ-2D R/B 4.0 00:04:46 10° NE 00:08:17 17° E 00:09:19 17° ESE
Cosmos 1339 Rocket 4.5 00:07:34 63° SSE 00:08:33 75° E 00:14:56 10° NNE
Cosmos 44 Rocket 3.3 00:06:16 10° NW 00:11:25 84° NNE 00:11:25 84° NNE
NOSS 2-1 (E) 4.5 00:08:00 10° NNW 00:13:04 70° NE 00:15:33 39° SE
Cosmos 1066 Rocket 4.4 00:15:43 59° WSW 00:16:15 61° WNW 00:21:52 10° N
Cosmos 1766 4.3 00:13:46 10° N 00:16:36 45° N 00:16:36 45° N
Resurs 1-4 Rocket 3.8 00:14:54 10° NE 00:18:54 22° E 00:19:48 21° ESE
USA 215 3.2 00:15:46 31° SE 00:19:13 87° NE 00:25:47 10° NW
CZ-4 R/B 4.4 00:16:48 10° NNE 00:21:21 48° E 00:21:21 48° E
Cosmos 724 4.4 00:23:02 58° WSW 00:24:14 75° NW 00:30:31 10° NNE
Cosmos 2221 Rocket 3.9 00:27:27 61° NW 00:27:27 61° NW 00:31:32 10° N
Cosmos 1378 Rocket 4.1 00:27:32 52° ENE 00:27:32 52° ENE 00:31:15 10° NNE
Cosmos 1727 Rocket 4.3 00:28:55 47° SE 00:30:20 58° E 00:36:34 10° NNE
SL-24 R/B 4.2 00:32:15 77° NNE 00:32:15 77° NNE 00:36:18 10° N
SL-16 R/B 3.7 00:29:05 18° ESE 00:33:08 38° ENE 00:38:49 10° N
Cosmos 2227 Rocket 3.9 00:28:57 10° N 00:33:50 29° NE 00:38:40 10° ESE
USA 281 3.6 00:32:52 26° SE 00:36:40 59° ENE 00:43:06 10° NNW
Cosmos 2297 Rocket 3.5 00:31:39 10° NNW 00:36:55 37° NE 00:41:11 15° ESE
Meteor 1-23 Rocket 4.5 00:37:04 52° WSW 00:37:50 56° WNW 00:43:34 10° N
Cosmos 1470 3.6 00:34:41 10° N 00:38:02 46° NE 00:38:02 46° NE
Meteor 2-20 4.5 00:37:47 57° SSE 00:39:00 74° E 00:45:10 10° NNE
Lacrosse 5 1.7 00:42:24 85° WSW 00:42:31 88° NW 00:47:39 10° NE
Cosmos 1758 4.3 00:42:28 10° N 00:46:21 40° ENE 00:46:30 40° E
BREEZE-M DEB (TANK) 3.6 00:46:07 67° SSE 00:46:23 69° SE 00:57:27 10° ENE
Cosmos 1400 Rocket 3.3 00:43:25 10° NNW 00:46:44 57° NNW 00:46:44 57° NNW
Okean 1 Rocket 3.1 00:44:10 10° N 00:48:21 74° NE 00:48:21 74° NE
COSMOS 2455 3.2 00:42:42 10° NNW 00:48:42 63° NE 00:52:18 25° SE
Okean 2 3.6 00:52:08 70° NNE 00:52:08 70° NNE 00:55:52 10° N
Cosmos 1315 Rocket 4.1 00:48:36 10° N 00:52:16 34° ENE 00:52:47 32° E
Cosmos 1842 4.0 00:53:24 48° NNW 00:53:24 48° NNW 00:56:26 10° N
Cosmos 1726 2.9 00:51:29 10° N 00:54:25 50° NNE 00:54:25 50° NNE
Cosmos 1674 Rocket 3.8 00:55:37 59° WNW 00:55:37 59° WNW 00:59:47 10° N
NOSS 2-1 (C) 4.4 00:54:22 10° NW 00:59:29 56° WSW 00:59:52 55° SW
USA 81 4.5 00:55:15 10° NNW 01:00:18 46° W 01:00:28 46° W
Cosmos 1656 4.0 01:01:06 46° SE 01:02:00 51° ESE 01:07:19 10° NE
MOZ.5/SAFIR/RUBIN 5/SL-8 3.6 01:06:46 79° SSW 01:06:58 83° WSW 01:11:38 10° NNW
Cosmos 1459 Rocket 4.1 01:02:20 10° N 01:08:36 69° E 01:11:15 35° SSE
Cosmos 1605 Rocket 4.5 01:05:36 10° NNW 01:11:27 43° W 01:12:29 40° WSW
BREEZE-M DEB (TANK) 3.3 01:12:16 44° SSE 01:12:52 46° SE 01:23:00 10° ENE
Cosmos 1626 4.3 01:12:20 16° ESE 01:13:10 18° E 01:15:41 10° NE
USA 276 3.7 01:16:16 35° NE 01:16:16 35° NE 01:18:20 10° ENE
Helios 1B rocket 2.6 01:13:44 10° NNE 01:17:50 60° ESE 01:18:03 59° ESE
ATLAS CENTAUR R/B 3.8 01:16:23 10° WNW 01:18:00 12° NNW 01:19:38 10° N
Cosmos 2219 3.5 01:13:53 10° NNW 01:19:35 67° ENE 01:23:33 20° SE
Timation 2 Rocket 4.1 01:14:19 10° NNW 01:20:18 67° ENE 01:25:21 15° SE
Cosmos 2173 Rocket 3.9 01:17:04 10° N 01:23:17 89° E 01:25:50 39° S
Cosmos 2251 Rocket 3.5 01:18:15 10° NNW 01:23:32 81° ENE 01:25:34 38° SSE
Cosmos 1707 2.9 01:25:54 59° NW 01:25:54 59° NW 01:29:22 10° N
Cosmos 1455 Rocket 3.3 01:23:28 10° N 01:27:47 62° E 01:28:54 45° SE
Lacrosse 4 Rocket 2.9 01:33:01 26° SE 01:33:59 29° ESE 01:37:50 10° NE
Cosmos 614 Rocket 3.9 01:34:01 10° NNW 01:39:08 84° ENE 01:41:44 30° SSE
Cosmos 1908 3.6 01:37:35 10° N 01:41:26 60° E 01:42:28 43° SE
Cosmos 304 Rocket 4.2 01:40:37 38° SSE 01:42:04 53° ESE 01:46:45 10° NNE
ISS -1.6 01:39:10 10° NW 01:42:07 27° NNE 01:45:05 10° ENE
SeaSat 1 4.5 01:39:00 10° N 01:42:23 19° NW 01:44:54 13° W
UNK 3.6 01:41:27 54° SSW 01:42:23 72° WSW 01:46:59 10° NNW
NPP 3.6 01:39:35 10° NNE 01:45:01 86° WNW 01:46:57 42° SSW
Cosmos 1953 2.2 01:42:21 10° N 01:46:22 85° E 01:47:08 57° SSE
ADEOS II 2.4 01:42:19 10° NNE 01:47:31 59° E 01:49:59 30° SSE
CZ-2D R/B 2.2 01:43:27 10° N 01:48:50 66° WNW 01:50:38 41° SW
Cosmos 2100 Rocket 4.2 01:44:16 10° NNW 01:50:24 54° W 01:52:47 36° SSW
Cosmos 1802 Rocket 3.9 01:44:56 10° NNW 01:51:04 72° W 01:53:58 33° S
Meteor 1-28 Rocket 4.4 01:50:03 18° SE 01:52:21 40° ENE 01:55:50 10° N
Meteor 1-16 Rocket 4.2 01:47:14 10° NNW 01:53:12 85° W 01:56:34 27° S
Cosmos 1697 Rocket 2.8 01:52:58 35° S 01:55:20 71° ESE 02:00:56 10° NNE
Cosmos 2123 Rocket 3.9 01:54:07 33° S 01:57:09 85° W 02:03:24 10° N
ARIANE 5 R/B 4.5 01:54:42 10° NE 01:58:44 23° E 02:02:43 10° SE
Resurs 1-4 Rocket 2.4 01:53:55 10° N 01:59:00 52° WNW 02:00:53 35° SW
DELTA 2 DEB (DPAF) 4.3 01:56:49 24° SSE 01:59:30 73° ENE 02:03:58 10° N
Cosmos 1975 Rocket 3.4 01:59:55 42° WSW 02:00:44 48° WNW 02:04:57 10° N
USA 215 4.0 02:03:02 28° WSW 02:03:02 28° WSW 02:08:10 10° WNW
ADEOS Rocket 3.7 01:55:53 10° SSE 02:03:16 75° ENE 02:11:04 10° N
Landsat 4 3.7 02:03:00 10° N 02:06:45 66° WNW 02:07:31 50° SW
SL-19 R/B 4.3 02:01:46 10° N 02:07:21 66° WNW 02:09:47 33° SW
Cosmos 1980 Rocket 2.9 02:04:03 22° S 02:07:26 47° ESE 02:12:51 10° NE
TSX-5 3.7 02:07:36 10° NW 02:11:02 58° WSW 02:12:11 40° S
Cosmos 371 Rocket 4.0 02:13:17 30° WSW 02:15:05 42° WNW 02:19:45 10° N
CZ-4C R/B 3.9 02:11:59 12° SSE 02:15:55 64° ENE 02:20:02 10° N
SL-16 R/B 3.1 02:14:10 28° SW 02:16:40 40° W 02:22:31 10° NNW
Cosmos 2227 Rocket 2.4 02:12:41 10° NW 02:18:08 49° WSW 02:21:30 22° S
Cosmos 332 Rocket 4.0 02:17:26 33° SW 02:19:30 60° WNW 02:24:20 10° NNE
Cosmos 2297 Rocket 2.8 02:15:48 10° NW 02:20:56 36° WSW 02:22:55 28° SW
USA 281 4.0 02:19:42 25° SW 02:21:28 29° WSW 02:27:03 10° NW
Cosmos 407 Rocket 3.5 02:16:44 10° NNW 02:22:07 79° WSW 02:27:27 10° SSE
SL-14 R/B 3.2 02:21:27 31° S 02:23:14 83° E 02:27:13 10° N
Cosmos 2369 3.7 02:21:48 27° SSW 02:25:07 90° WNW 02:30:54 10° NNE
Cosmos 1674 3.7 02:24:30 29° W 02:25:15 31° WNW 02:28:42 10° NNW
Lacrosse 5 3.5 02:21:42 10° W 02:26:05 28° NNW 02:30:28 10° NE
CBERS-1 4.0 02:21:09 10° NNE 02:26:17 86° ESE 02:29:38 22° SSW
Cosmos 2278 4.1 02:23:07 20° S 02:27:02 59° ESE 02:32:39 10° NNE
APEX 3.8 02:23:19 10° NNW 02:27:50 71° WSW 02:33:29 10° SSE
Cosmos 1315 Rocket 4.4 02:25:44 10° NW 02:28:27 19° W 02:28:27 19° W
Cosmos 1025 Rocket 3.5 02:28:00 31° SW 02:29:39 46° WNW 02:33:53 10° N
Cosmos 1624 Rocket 4.1 02:26:38 23° SSW 02:29:58 82° ESE 02:35:21 10° NNE
Cosmos 2082 3.6 02:27:18 10° NNW 02:32:59 72° WSW 02:38:40 10° SSE
COSMOS 2455 3.9 02:29:30 10° NW 02:34:08 24° WSW 02:35:21 22° WSW
Meteor 1-29 4.3 02:36:31 10° NNW 02:39:20 24° WNW 02:40:10 22° W
SL-16 R/B 4.1 02:36:50 10° SSE 02:41:21 25° ESE 02:45:52 10° NE
IRS-1C 4.3 02:36:46 10° NNE 02:42:07 71° ESE 02:47:01 12° S
BREEZE-M DEB (TANK) 2.5 02:44:41 33° S 02:45:06 37° SE 02:47:44 10° ENE
Cosmos 1626 3.1 02:46:50 23° WSW 02:48:08 30° WNW 02:51:27 10° NNW
Cosmos 1954 Rocket 4.1 02:44:30 10° NNW 02:49:48 85° ENE 02:55:07 10° SSE
Cosmos 2056 Rocket 3.5 02:47:55 20° SSW 02:51:25 67° WNW 02:56:33 10° NNE
USA 276 4.0 02:48:58 10° WNW 02:51:47 28° N 02:54:36 10° ENE
Cosmos 405 3.1 02:49:50 10° N 02:53:22 76° E 02:56:51 10° SSE
Cosmos 1300 2.8 02:50:04 10° NNW 02:53:50 56° W 02:56:58 14° S
Cosmos 2233 Rocket 4.3 02:51:17 10° NNW 02:57:11 47° W 03:02:56 10° SSW
Cosmos 1606 Rocket 3.8 02:57:50 10° N 03:02:15 72° E 03:06:40 10° SSE
Cosmos 1726 Rocket 4.3 02:58:20 10° N 03:02:40 56° E 03:06:59 10° SSE
Cosmos 292 Rocket 4.3 02:59:04 10° S 03:03:48 58° ESE 03:08:36 10° NNE
Cosmos 1371 Rocket 4.5 03:00:24 17° SW 03:04:11 47° WNW 03:09:13 10° N
IRS-1D 4.5 03:03:56 10° N 03:08:44 35° WNW 03:12:46 14° SW
Meteor 1-24 Rocket 3.7 03:04:06 11° SSW 03:09:25 67° WNW 03:14:49 10° N
Cosmos 2322 Rocket 3.7 03:04:27 10° SSE 03:09:25 33° ESE 03:14:27 10° NE
Cosmos 2228 2.9 03:05:20 10° N 03:09:37 79° W 03:13:55 10° S
IDEFIX/ARIANE 42P 2.9 03:05:22 10° N 03:10:28 51° WNW 03:15:08 12° SW
Cosmos 1455 3.6 03:06:55 10° N 03:10:35 40° ENE 03:14:14 10° SSE
Lacrosse 4 Rocket 2.6 03:09:19 14° WSW 03:12:36 34° NW 03:16:38 10° NNE
GP-B 4.3 03:10:21 10° NNW 03:14:01 26° WNW 03:16:59 13° SW
Cosmos 2263 Rocket 2.3 03:09:58 10° NNW 03:15:40 87° ENE 03:21:21 10° SSE
CZ-2C R/B 3.3 03:11:51 10° NNE 03:16:52 53° E 03:21:56 10° S
Cosmos 2285 Rocket 4.4 03:12:26 13° SW 03:18:02 52° WNW 03:24:20 10° NNE
Meteor 2-10 Rocket 3.7 03:12:33 10° NNW 03:18:18 79° W 03:23:48 10° S
ISS -3.7 03:15:52 10° WNW 03:19:16 88° NE 03:22:39 10° ESE
Cosmos 1140 Rocket 4.4 03:15:14 10° NW 03:19:37 28° W 03:24:01 10° SSW
IRS-P3 4.4 03:17:12 10° N 03:22:24 53° WNW 03:27:34 10° SW
Meteor 2-5 Rocket 4.3 03:19:16 11° SW 03:24:25 41° WNW 03:29:44 10° N
Cosmos 389 Rocket 3.5 03:22:36 10° N 03:26:02 48° ENE 03:29:23 10° SSE
USA 32 4.3 03:20:59 10° N 03:26:16 75° E 03:31:31 10° S
ADEOS II 3.6 03:22:57 10° NNW 03:26:47 21° WNW 03:30:35 10° WSW
Cosmos 1340 3.6 03:24:33 12° SW 03:27:36 31° WNW 03:31:00 10° N
CZ-2D R/B 4.3 03:26:37 10° NW 03:27:49 11° NW 03:29:02 10° WNW
NOSS 3-2 (A) 4.0 03:22:51 10° SSW 03:28:10 51° ESE 03:34:12 10° NE
CZ-2C R/B 3.4 03:24:21 10° NNE 03:28:20 60° ESE 03:32:19 10° S
Atlas Centaur 2 4.4 03:26:39 10° SSW 03:30:20 15° SSE 03:33:41 10° SE
OAO 2 Rocket 4.5 03:27:36 11° SW 03:32:00 29° S 03:36:34 10° ESE
Cosmos 2360 Rocket 4.0 03:28:15 10° SSE 03:33:03 29° ESE 03:37:52 10° NE
ALOS 3.4 03:33:29 10° NNE 03:37:59 46° E 03:42:27 10° S
ARIANE 5 R/B 2.9 03:33:08 10° N 03:38:04 47° WNW 03:42:55 10° SW
Cosmos 1697 Rocket 4.3 03:35:38 10° W 03:39:52 21° NW 03:44:07 10° N
USA 238 DEB 4.4 03:35:01 10° SSW 03:41:17 52° ESE 03:47:50 10° NE
USA 238 4.4 03:35:08 10° SSW 03:41:23 51° ESE 03:47:56 10° NE
SL-08 R/B 3.8 03:38:01 10° SSW 03:42:23 37° W 03:46:41 10° NNW
